Weather History for Madison, WI

Change the Weather History Date:

Friday, November 23, 2012

  Actual Average Record
Temperature  
Mean Temperature 33 °F 32 °F  
Max Temperature 39 °F 40 °F 63 °F (1931)
Min Temperature 26 °F 25 °F -3 °F (1950)
Degree Days  
Heating Degree Days 32 33  
Month to date heating degree days 565 623  
Since 1 July heating degree days 1280 1336  
Cooling Degree Days 0 0  
Month to date cooling degree days 0 0  
Year to date cooling degree days 1068 568  
Moisture  
Dew Point 17 °F    
Average Humidity 59    
Maximum Humidity 64    
Minimum Humidity 53    
Precipitation  
Precipitation T in 0.08 in 1.70 in (2003)
Month to date precipitation 0.90 1.85  
Year to date precipitation 23.76 32.20  
Snow  
Snow T in 0.10 in 2.80 in (1977)
Month to date snowfall 0.1 2.0  
Since 1 July snowfall 0.1 2.5  
Since 1 September snowfall 0.1 2.5  
Snow Depth 0.00 in    
Sea Level Pressure  
Sea Level Pressure 30.08 in    
Wind  
Wind Speed 15 mph (WNW)    
Max Wind Speed 25 mph    
Max Gust Speed 38 mph    
Visibility 10 miles    
Events Snow    
T = Trace of Precipitation, MM = Missing Value Source: NWS Daily Summary

Daily Weather History Graph

Daily Weather History Graph

Search for Another Location

Airport:

Trip Planner

Search our weather history database for the weather conditions in past years. The results will help you decide how hot, cold, wet, or windy it might be!

Date:

Astronomy

Nov. 23, 2012 Rise Set
Actual Time 7:00 AM CST 4:26 PM CST
Civil Twilight 6:29 AM CST 4:58 PM CST
Nautical Twilight 5:54 AM CST 5:33 PM CST
Astronomical Twilight 5:20 AM CST 6:07 PM CST
Moon 1:47 PM CST (11/23) 2:13 AM CST (11/23)
Length of Visible Light 10h 28m
Length of Day
9h 26m
Waxing Gibbous, 80% of the Moon is Illuminated
Nov 23
Waxing Gibbous
Nov 28
Full
Dec 6
Last Quarter
Dec 13
New
Dec 19
First Quarter

Hourly Weather History & Observations

Time (CST) Temp. Windchill Dew Point Humidity Pressure Visibility Wind Dir Wind Speed Gust Speed Precip Events Conditions
12:53 AM 37.9 °F 30.9 °F 27.0 °F 65% 29.86 in 10.0 mi West 10.4 mph 25.3 mph N/A   Overcast
1:53 AM 37.0 °F 28.5 °F 24.1 °F 59% 29.87 in 10.0 mi West 13.8 mph 26.5 mph N/A   Overcast
2:53 AM 37.0 °F 29.8 °F 24.1 °F 59% 29.87 in 10.0 mi West 10.4 mph 20.7 mph N/A   Overcast
3:53 AM 35.1 °F 25.5 °F 23.0 °F 61% 29.87 in 10.0 mi West 15.0 mph 24.2 mph N/A   Overcast
4:04 AM 33.8 °F 23.9 °F 23.0 °F 65% 29.86 in 10.0 mi West 15.0 mph 26.5 mph N/A   Overcast
4:53 AM 32.0 °F 22.1 °F 21.0 °F 64% 29.90 in 10.0 mi West 13.8 mph 27.6 mph N/A   Overcast
5:35 AM 28.4 °F 16.2 °F 15.8 °F 59% 29.91 in 10.0 mi WNW 17.3 mph 31.1 mph N/A   Overcast
5:53 AM 28.0 °F 16.1 °F 15.1 °F 58% 29.94 in 10.0 mi WNW 16.1 mph 31.1 mph N/A   Overcast
6:27 AM 28.4 °F 17.5 °F 15.8 °F 59% 29.93 in 10.0 mi WNW 13.8 mph 31.1 mph N/A   Overcast
6:53 AM 27.0 °F 14.3 °F 16.0 °F 63% 29.96 in 10.0 mi WNW 17.3 mph 26.5 mph N/A   Overcast
7:53 AM 27.0 °F 16.1 °F 17.1 °F 66% 29.99 in 9.0 mi WNW 12.7 mph 25.3 mph 0.00 in Snow Light Snow
8:10 AM 26.6 °F 15.7 °F 17.6 °F 69% 29.98 in 9.0 mi WNW 12.7 mph 25.3 mph 0.00 in Snow Light Snow
8:53 AM 27.0 °F 13.9 °F 15.1 °F 61% 30.03 in 9.0 mi NW 18.4 mph 27.6 mph 0.00 in Snow Light Snow
9:53 AM 28.0 °F 14.9 °F 15.1 °F 58% 30.06 in 9.0 mi NW 19.6 mph 28.8 mph 0.00 in Snow Light Snow
10:53 AM 28.0 °F 14.6 °F 14.0 °F 56% 30.09 in 9.0 mi NW 20.7 mph 32.2 mph 0.00 in Snow Light Snow
11:53 AM 30.0 °F 18.3 °F 15.1 °F 54% 30.10 in 10.0 mi WNW 17.3 mph 28.8 mph 0.00 in   Mostly Cloudy
12:53 PM 28.9 °F 18.2 °F 15.1 °F 56% 30.12 in 10.0 mi WNW 13.8 mph 28.8 mph N/A   Mostly Cloudy
1:53 PM 28.9 °F 16.9 °F 15.1 °F 56% 30.14 in 10.0 mi NW 17.3 mph 31.1 mph N/A   Mostly Cloudy
2:53 PM 28.9 °F 17.3 °F 15.1 °F 56% 30.17 in 10.0 mi WNW 16.1 mph 25.3 mph N/A   Mostly Cloudy
3:53 PM 28.0 °F 17.0 °F 15.1 °F 58% 30.19 in 10.0 mi NW 13.8 mph 26.5 mph N/A   Mostly Cloudy
4:53 PM 28.0 °F 18.1 °F 15.1 °F 58% 30.21 in 10.0 mi NW 11.5 mph 23.0 mph N/A   Overcast
5:53 PM 28.0 °F 18.1 °F 15.1 °F 58% 30.25 in 10.0 mi NW 11.5 mph 21.9 mph N/A   Overcast
6:53 PM 27.0 °F 14.7 °F 15.1 °F 61% 30.25 in 10.0 mi NW 16.1 mph 23.0 mph N/A   Overcast
7:51 PM 26.6 °F 16.2 °F 15.8 °F 64% 30.22 in 10.0 mi NW 11.5 mph 17.3 mph N/A   Overcast
7:53 PM 27.0 °F 17.3 °F 15.1 °F 61% 30.25 in 10.0 mi NW 10.4 mph 18.4 mph N/A   Overcast
8:53 PM 26.1 °F 13.1 °F 15.1 °F 63% 30.25 in 10.0 mi NNW 17.3 mph 27.6 mph N/A   Overcast
9:53 PM 26.1 °F 14.5 °F 16.0 °F 66% 30.25 in 10.0 mi NNW 13.8 mph 19.6 mph N/A   Overcast
10:53 PM 26.1 °F 15.0 °F 15.1 °F 63% 30.26 in 10.0 mi NNW 12.7 mph 19.6 mph N/A   Overcast
11:53 PM 26.6 °F 14.3 °F 15.8 °F 64% 30.22 in 10.0 mi NW 16.1 mph 21.9 mph N/A   Overcast